When you browse on this site, cookies collect data to enhance your experience and personalize the content and advertising you see.
Visit our Privacy Policy to learn more. By continuing to use the site, you agree to this use of cookies and data.
  • în România
  • Lista ţărilor
  • Pe 7 zile
  • Temperatura apei
  • Hartă satelitară
  • Meteo pe hartă
  • Widget-uri
  • user-avatar
    Intrare

    Meteo pe oră la Halol

    Astăzi, 20 Iulie, Sâmbătă

    Timp Temperatura Precipitaţii Vânt Presiune Umiditate
    00:00 +34°C° 0 mm 3 m/s 742 mmHg 60%
    01:00 +33°C° 0 mm 3 m/s 742 mmHg 63%
    02:00 +33°C° 0 mm 3 m/s 742 mmHg 66%
    03:00 +31°C° 0 mm 3 m/s 742 mmHg 67%
    04:00 +31°C° 0 mm 2 m/s 742 mmHg 68%
    05:00 +31°C° 0 mm 2 m/s 742 mmHg 69%
    06:00 +32°C° 0 mm 2 m/s 742 mmHg 66%
    07:00 +32°C° 0 mm 2 m/s 743 mmHg 63%
    08:00 +34°C° 0 mm 3 m/s 743 mmHg 60%
    09:00 +36°C° 0 mm 3 m/s 743 mmHg 55%
    10:00 +37°C° 0 mm 3 m/s 743 mmHg 50%
    11:00 +38°C° 0 mm 3 m/s 743 mmHg 46%
    12:00 +39°C° 0 mm 2 m/s 743 mmHg 44%
    13:00 +39°C° 0 mm 2 m/s 742 mmHg 42%
    14:00 +40°C° 0 mm 2 m/s 742 mmHg 41%
    15:00 +39°C° 0.1 mm 3 m/s 741 mmHg 45%
    16:00 +38°C° 0.1 mm 4 m/s 741 mmHg 50%
    17:00 +36°C° 0.1 mm 5 m/s 741 mmHg 54%
    18:00 +34°C° 4.7 mm 4 m/s 741 mmHg 65%
    19:00 +32°C° 4.7 mm 4 m/s 742 mmHg 76%
    20:00 +28°C° 4.7 mm 3 m/s 742 mmHg 87%
    21:00 +29°C° 2.6 mm 3 m/s 743 mmHg 86%
    22:00 +29°C° 2.6 mm 4 m/s 743 mmHg 86%
    23:00 +29°C° 2.6 mm 4 m/s 743 mmHg 85%

    Mâine, 21 Iulie, Duminică

    Timp Temperatura Precipitaţii Vânt Presiune Umiditate
    00:00 +29°C° 0.1 mm 3 m/s 743 mmHg 85%
    01:00 +29°C° 0.1 mm 3 m/s 743 mmHg 84%
    02:00 +29°C° 0.1 mm 3 m/s 742 mmHg 84%
    03:00 +29°C° 0 mm 2 m/s 742 mmHg 84%
    04:00 +29°C° 0 mm 1 m/s 742 mmHg 85%
    05:00 +29°C° 0 mm 1 m/s 742 mmHg 85%
    06:00 +29°C° 0 mm 1 m/s 743 mmHg 83%
    07:00 +30°C° 0 mm 1 m/s 743 mmHg 81%
    08:00 +30°C° 0 mm 2 m/s 744 mmHg 79%
    09:00 +31°C° 0.1 mm 2 m/s 744 mmHg 75%
    10:00 +32°C° 0.1 mm 2 m/s 743 mmHg 71%
    11:00 +34°C° 0.1 mm 2 m/s 743 mmHg 67%
    12:00 +35°C° 0 mm 3 m/s 743 mmHg 64%
    13:00 +36°C° 0 mm 3 m/s 742 mmHg 61%
    14:00 +36°C° 0 mm 3 m/s 742 mmHg 57%
    15:00 +37°C° 0 mm 3 m/s 741 mmHg 56%
    16:00 +37°C° 0 mm 3 m/s 741 mmHg 54%
    17:00 +37°C° 0 mm 2 m/s 740 mmHg 53%
    18:00 +36°C° 0.1 mm 3 m/s 741 mmHg 57%
    19:00 +35°C° 0.1 mm 3 m/s 741 mmHg 62%
    20:00 +34°C° 0.1 mm 4 m/s 742 mmHg 66%
    21:00 +33°C° 0.7 mm 3 m/s 742 mmHg 69%
    22:00 +33°C° 0.7 mm 3 m/s 742 mmHg 73%
    23:00 +31°C° 0.7 mm 2 m/s 742 mmHg 76%

    Poimâine, 22 Iulie, Luni

    Timp Temperatura Precipitaţii Vânt Presiune Umiditate
    00:00 +30°C° 1 mm 3 m/s 742 mmHg 80%
    01:00 +30°C° 1 mm 3 m/s 741 mmHg 84%
    02:00 +29°C° 1 mm 4 m/s 741 mmHg 87%
    03:00 +29°C° 0.2 mm 3 m/s 741 mmHg 87%
    04:00 +29°C° 0.2 mm 3 m/s 741 mmHg 87%
    05:00 +29°C° 0.2 mm 2 m/s 741 mmHg 87%
    06:00 +29°C° 0.5 mm 2 m/s 742 mmHg 85%
    07:00 +30°C° 0.5 mm 2 m/s 742 mmHg 83%
    08:00 +30°C° 0.5 mm 2 m/s 743 mmHg 81%
    09:00 +30°C° 0.9 mm 3 m/s 743 mmHg 78%
    10:00 +31°C° 0.9 mm 3 m/s 743 mmHg 76%
    11:00 +31°C° 0.9 mm 3 m/s 743 mmHg 73%
    12:00 +33°C° 0 mm 4 m/s 742 mmHg 69%
    13:00 +35°C° 0 mm 4 m/s 742 mmHg 64%
    14:00 +36°C° 0 mm 4 m/s 741 mmHg 60%
    15:00 +36°C° 0 mm 4 m/s 741 mmHg 59%
    16:00 +36°C° 0 mm 4 m/s 740 mmHg 59%
    17:00 +36°C° 0 mm 4 m/s 740 mmHg 59%
    18:00 +35°C° 0 mm 4 m/s 740 mmHg 62%
    19:00 +34°C° 0 mm 3 m/s 741 mmHg 66%
    20:00 +33°C° 0 mm 3 m/s 741 mmHg 70%
    21:00 +32°C° 1 mm 2 m/s 741 mmHg 72%
    22:00 +31°C° 1 mm 2 m/s 741 mmHg 75%
    23:00 +30°C° 1 mm 2 m/s 742 mmHg 78%

    23 Iulie, Marţi

    Timp Temperatura Precipitaţii Vânt Presiune Umiditate
    00:00 +30°C° 1.1 mm 2 m/s 741 mmHg 79%
    01:00 +30°C° 1.1 mm 2 m/s 741 mmHg 80%
    02:00 +30°C° 1.1 mm 3 m/s 741 mmHg 81%
    03:00 +29°C° 0.6 mm 3 m/s 741 mmHg 83%
    04:00 +29°C° 0.6 mm 3 m/s 741 mmHg 84%
    05:00 +29°C° 0.6 mm 2 m/s 741 mmHg 86%
    06:00 +29°C° 0.2 mm 2 m/s 741 mmHg 82%
    07:00 +30°C° 0.2 mm 2 m/s 742 mmHg 78%
    08:00 +31°C° 0.2 mm 2 m/s 742 mmHg 74%
    09:00 +32°C° 0 mm 2 m/s 742 mmHg 69%
    10:00 +34°C° 0 mm 2 m/s 742 mmHg 64%
    11:00 +35°C° 0 mm 3 m/s 742 mmHg 59%
    12:00 +36°C° 0 mm 2 m/s 742 mmHg 57%
    13:00 +36°C° 0 mm 2 m/s 741 mmHg 55%
    14:00 +37°C° 0 mm 2 m/s 740 mmHg 53%
    15:00 +37°C° 0 mm 2 m/s 740 mmHg 52%
    16:00 +37°C° 0 mm 2 m/s 740 mmHg 52%
    17:00 +37°C° 0 mm 2 m/s 739 mmHg 52%
    18:00 +36°C° 0 mm 2 m/s 740 mmHg 55%
    19:00 +36°C° 0 mm 2 m/s 740 mmHg 58%
    20:00 +34°C° 0 mm 1 m/s 741 mmHg 61%
    21:00 +34°C° 0 mm 2 m/s 741 mmHg 66%
    22:00 +33°C° 0 mm 3 m/s 741 mmHg 70%
    23:00 +32°C° 0 mm 4 m/s 741 mmHg 74%

    24 Iulie, Miercuri

    Timp Temperatura Precipitaţii Vânt Presiune Umiditate
    00:00 +31°C° 0 mm 3 m/s 741 mmHg 75%
    01:00 +31°C° 0 mm 3 m/s 741 mmHg 77%
    02:00 +30°C° 0 mm 3 m/s 740 mmHg 79%
    03:00 +30°C° 0 mm 3 m/s 740 mmHg 78%
    04:00 +30°C° 0 mm 3 m/s 740 mmHg 78%
    05:00 +30°C° 0 mm 3 m/s 741 mmHg 77%
    06:00 +30°C° 0.2 mm 3 m/s 741 mmHg 76%
    07:00 +31°C° 0.2 mm 3 m/s 742 mmHg 75%
    08:00 +31°C° 0.2 mm 3 m/s 742 mmHg 74%
    09:00 +31°C° 0 mm 3 m/s 742 mmHg 71%
    10:00 +33°C° 0 mm 3 m/s 742 mmHg 69%
    11:00 +33°C° 0 mm 4 m/s 742 mmHg 67%
    12:00 +34°C° 0 mm 4 m/s 741 mmHg 63%
    13:00 +35°C° 0 mm 4 m/s 741 mmHg 60%
    14:00 +36°C° 0 mm 4 m/s 740 mmHg 56%
    15:00 +36°C° 0 mm 4 m/s 740 mmHg 56%
    16:00 +36°C° 0 mm 4 m/s 740 mmHg 55%
    17:00 +36°C° 0 mm 4 m/s 739 mmHg 54%
    18:00 +35°C° 0 mm 3 m/s 740 mmHg 58%
    19:00 +34°C° 0 mm 3 m/s 740 mmHg 61%
    20:00 +33°C° 0 mm 3 m/s 741 mmHg 65%
    21:00 +33°C° 0 mm 3 m/s 741 mmHg 67%
    22:00 +31°C° 0 mm 3 m/s 742 mmHg 70%
    23:00 +31°C° 0 mm 3 m/s 742 mmHg 73%

    25 Iulie, Joi

    Timp Temperatura Precipitaţii Vânt Presiune Umiditate
    00:00 +31°C° 0 mm 3 m/s 742 mmHg 73%
    01:00 +31°C° 0 mm 3 m/s 741 mmHg 74%
    02:00 +30°C° 0 mm 3 m/s 741 mmHg 75%
    03:00 +30°C° 0 mm 3 m/s 741 mmHg 74%
    04:00 +30°C° 0 mm 3 m/s 742 mmHg 74%
    05:00 +30°C° 0 mm 3 m/s 742 mmHg 73%
    06:00 +30°C° 0 mm 3 m/s 742 mmHg 72%
    07:00 +32°C° 0 mm 4 m/s 742 mmHg 70%
    08:00 +32°C° 0 mm 4 m/s 743 mmHg 69%
    09:00 +33°C° 0 mm 5 m/s 743 mmHg 64%
    10:00 +34°C° 0 mm 5 m/s 743 mmHg 60%
    11:00 +35°C° 0 mm 5 m/s 743 mmHg 56%
    12:00 +36°C° 0 mm 5 m/s 742 mmHg 54%
    13:00 +36°C° 0 mm 5 m/s 742 mmHg 53%
    14:00 +36°C° 0 mm 4 m/s 741 mmHg 52%
    15:00 +36°C° 0 mm 4 m/s 741 mmHg 53%
    16:00 +35°C° 0 mm 4 m/s 741 mmHg 54%
    17:00 +35°C° 0 mm 4 m/s 740 mmHg 56%
    18:00 +34°C° 0 mm 4 m/s 741 mmHg 59%
    19:00 +33°C° 0 mm 4 m/s 741 mmHg 62%
    20:00 +33°C° 0 mm 4 m/s 741 mmHg 66%
    21:00 +32°C° 0.1 mm 4 m/s 741 mmHg 68%
    22:00 +32°C° 0.1 mm 4 m/s 741 mmHg 70%
    23:00 +32°C° 0.1 mm 4 m/s 742 mmHg 72%
    Arată mai mult